1485608400.38,25463,12.94,73808.8,9.27,-26.81,-26.97,0,*70
1485608401.64,25464,12.88,73806.0,9.27,-26.65,-26.77,0,*73
1485608402.86,25465,12.88,73806.8,9.27,-26.61,-26.65,0,*75
1485608404.07,25466,12.88,73804.8,9.25,-27.03,-27.03,0,*70
1485608405.27,25467,12.94,73808.3,9.25,-27.03,-27.03,0,*71
1485608406.53,25468,12.94,73810.5,9.25,-26.97,-26.97,0,*7E
1485608407.78,25469,12.88,73804.5,9.25,-26.93,-26.93,0,*7F
1485608409.01,25470,12.94,73808.5,9.25,-26.97,-27.03,0,*7B
1485608410.21,25471,12.88,73808.0,9.25,-26.87,-27.03,0,*7B
1485608411.44,25472,12.88,73808.8,9.25,-26.97,-27.03,0,*79
1485608412.67,25473,12.88,73806.8,9.25,-26.93,-27.03,0,*7C
1485608413.91,25474,12.88,73806.5,9.25,-27.19,-27.19,0,*73
1485608415.14,25475,12.94,73810.5,9.25,-27.19,-27.29,0,*71
1485608416.41,25476,12.88,73806.8,9.23,-27.35,-27.35,0,*77
1485608417.63,25477,12.88,73804.8,9.25,-27.19,-27.29,0,*73
1485608418.89,25478,12.88,73806.8,9.23,-26.97,-27.07,0,*71
1485608420.16,25479,12.94,73808.3,9.23,-27.23,-27.23,0,*78
1485608421.43,25480,12.88,73806.3,9.23,-27.19,-27.35,0,*70
1485608422.71,25481,12.88,73808.0,9.23,-27.23,-27.23,0,*7F
1485608423.98,25482,12.88,73806.3,9.23,-27.23,-27.23,0,*7C
1485608425.23,25483,12.88,73806.8,9.21,-27.23,-27.23,0,*7F
1485608426.48,25484,12.94,73808.5,9.21,-27.23,-27.19,0,*71
1485608427.74,25485,12.88,73804.5,9.19,-27.39,-27.29,0,*73
1485608428.99,25486,12.94,73810.0,9.21,-27.35,-27.35,0,*7A
1485608430.2,25487,12.88,73806.8,9.21,-27.03,-27.03,0,*7B
1485608431.42,25488,12.88,73806.5,9.19,-27.07,-27.07,0,*7F
1485608432.7,25489,12.88,73808.0,9.19,-27.23,-27.23,0,*7E
1485608433.94,25490,12.88,73808.0,9.21,-26.97,-27.03,0,*71
1485608435.14,25491,12.88,73806.0,9.17,-27.51,-27.67,0,*7C
1485608436.37,25492,12.94,73810.0,9.19,-27.07,-27.07,0,*74
1485608437.65,25493,12.94,73808.0,9.19,-27.45,-27.61,0,*73
1485608438.9,25494,12.94,73808.3,9.17,-27.45,-27.45,0,*7C
1485608440.13,25495,12.88,73806.0,9.15,-27.29,-27.29,0,*7F
1485608441.36,25496,12.88,73804.5,9.17,-27.51,-27.61,0,*7D
1485608442.56,25497,12.94,73810.3,9.17,-27.51,-27.51,0,*7F
1485608443.83,25498,12.94,73808.0,9.15,-27.45,-27.45,0,*72
1485608445.11,25499,12.88,73804.0,9.15,-26.93,-26.97,0,*77
1485608446.33,25500,12.94,73808.3,9.15,-27.07,-27.13,0,*77
1485608447.61,25501,12.94,73808.0,9.15,-26.77,-26.81,0,*7A
1485608448.89,25502,12.94,73808.0,9.15,-26.81,-26.97,0,*77
1485608450.15,25503,12.94,73808.8,9.15,-27.29,-27.35,0,*7C
1485608451.4,25504,12.94,73808.3,9.13,-27.35,-27.39,0,*7C
1485608452.62,25505,12.94,73808.3,9.15,-27.13,-27.29,0,*7E
1485608453.85,25506,12.88,73806.0,9.15,-27.13,-27.29,0,*7D
1485608455.13,25507,12.94,73810.0,9.15,-26.81,-26.93,0,*76
1485608456.38,25508,12.88,73806.0,9.13,-27.23,-27.23,0,*7C
1485608457.64,25509,12.94,73810.3,9.13,-26.97,-26.97,0,*7D
1485608458.89,25510,12.94,73808.0,9.13,-27.39,-27.39,0,*75
1485608460.09,25511,12.94,73806.3,9.13,-27.51,-27.55,0,*70
1485608461.29,25512,12.94,73808.0,9.13,-27.55,-27.55,0,*77
1485608462.56,25513,12.94,73808.0,9.11,-27.19,-27.23,0,*7D
1485608463.82,25514,12.94,73808.5,9.11,-27.19,-27.29,0,*70
1485608465.09,25515,12.94,73808.3,9.11,-27.23,-27.23,0,*72
1485608466.35,25516,12.94,73806.3,9.11,-26.77,-26.87,0,*7E
1485608467.61,25517,12.94,73808.0,9.11,-26.93,-27.03,0,*78
1485608468.81,25518,12.94,73806.5,9.13,-27.03,-27.13,0,*7C
1485608470.06,25519,12.94,73808.0,9.09,-27.19,-27.23,0,*7E
1485608471.31,25520,12.94,73810.5,9.11,-27.07,-27.23,0,*72
1485608472.57,25521,12.94,73804.8,9.11,-27.19,-27.29,0,*76
1485608473.79,25522,12.94,73810.0,9.09,-27.19,-27.29,0,*7C
1485608475.02,25523,12.94,73804.5,9.09,-27.29,-27.23,0,*74
1485608476.23,25524,12.94,73806.5,9.09,-27.03,-27.07,0,*7D
1485608477.44,25525,12.94,73810.0,9.09,-27.29,-27.29,0,*78
1485608478.67,25526,12.88,73806.5,9.09,-27.29,-27.39,0,*7A
1485608479.93,25527,12.94,73808.8,9.09,-27.23,-27.39,0,*71
1485608481.17,25528,12.88,73806.3,9.09,-27.19,-27.23,0,*7C
1485608482.44,25529,12.94,73810.0,9.05,-27.45,-27.45,0,*78
1485608483.69,25530,12.94,73808.8,9.05,-27.23,-27.29,0,*7A
1485608484.93,25531,12.94,73808.8,9.05,-26.97,-27.13,0,*7C
1485608486.16,25532,12.94,73806.5,9.03,-26.97,-27.13,0,*79
1485608487.38,25533,12.94,73810.8,9.03,-26.97,-27.13,0,*78
1485608488.6,25534,12.94,73808.8,9.03,-27.39,-27.55,0,*78
1485608489.8,25535,12.94,73808.3,9.03,-27.55,-27.55,0,*73
1485608490.99,25536,12.94,73806.3,9.03,-27.03,-27.13,0,*71
1485608492.24,25537,12.94,73806.0,9.03,-27.39,-27.35,0,*7D
1485608493.47,25538,12.94,73806.0,9.03,-27.29,-27.35,0,*73
1485608494.72,25539,12.94,73806.5,9.01,-27.29,-27.35,0,*70
1485608495.98,25540,12.94,73810.3,9.03,-26.81,-26.81,0,*71
1485608497.23,25541,12.94,73810.0,9.03,-26.81,-26.97,0,*77
1485608498.51,25542,12.94,73808.8,9.01,-26.97,-26.97,0,*71
1485608499.73,25543,12.88,73806.0,9.01,-26.87,-26.87,0,*70
1485608500.96,25544,12.94,73810.3,9.01,-27.13,-27.03,0,*76
1485608502.16,25545,12.94,73810.3,9.03,-27.03,-27.03,0,*74
1485608503.35,25546,12.94,73810.3,9.03,-27.03,-27.13,0,*76
1485608504.58,25547,12.94,73810.3,9.01,-27.03,-27.03,0,*74
1485608505.8,25548,12.94,73806.8,9.03,-26.87,-26.97,0,*78
1485608507.08,25549,12.94,73804.8,9.01,-26.97,-26.97,0,*7A
1485608508.31,25550,12.94,73808.5,9.01,-26.87,-26.87,0,*72
1485608509.56,25551,12.94,73810.5,9.01,-26.97,-26.87,0,*72
1485608510.84,25552,12.94,73804.5,9.01,-26.97,-26.97,0,*70
1485608512.11,25553,12.94,73810.3,9.01,-27.19,-27.19,0,*71
1485608513.38,25554,12.94,73806.0,9.01,-27.35,-27.39,0,*7A
1485608514.58,25555,12.94,73810.3,9.03,-27.71,-27.71,0,*75
1485608515.78,25556,12.94,73806.3,8.99,-27.71,-27.89,0,*73
1485608516.97,25557,12.94,73808.5,8.99,-27.93,-27.77,0,*7F
1485608518.23,25558,12.94,73808.5,8.97,-27.19,-27.23,0,*7D
1485608519.48,25559,12.94,73810.3,8.95,-27.83,-27.83,0,*77
1485608520.75,25560,12.94,73810.8,8.97,-28.09,-28.09,0,*7F
1485608521.97,25561,12.94,73806.5,8.95,-28.09,-28.15,0,*71
1485608523.22,25562,12.94,73806.0,8.95,-27.99,-28.09,0,*79
1485608524.45,25563,12.94,73808.0,8.93,-27.67,-27.67,0,*78
1485608525.7,25564,12.94,73804.8,8.93,-27.35,-27.29,0,*72
1485608526.95,25565,12.94,73808.0,8.93,-27.29,-27.35,0,*73
1485608528.2,25566,12.94,73806.5,8.93,-27.83,-27.71,0,*70
1485608529.43,25567,12.94,73808.8,8.93,-27.67,-27.67,0,*7C
1485608530.63,25568,12.94,73808.3,8.91,-27.29,-27.29,0,*71
1485608531.87,25569,12.94,73808.0,8.91,-26.97,-27.03,0,*7C
1485608533.09,25570,12.94,73804.8,8.91,-26.97,-27.13,0,*75
1485608534.34,25571,12.94,73804.0,8.91,-27.35,-27.35,0,*79
1485608535.56,25572,12.94,73806.8,8.91,-27.19,-27.29,0,*79
1485608536.81,25573,12.94,73808.0,8.91,-27.35,-27.35,0,*7B
1485608538.03,25574,12.94,73810.3,8.91,-27.19,-27.29,0,*7F
1485608539.29,25575,12.94,73810.3,8.89,-27.61,-27.71,0,*75
1485608540.55,25576,12.94,73810.3,8.89,-27.19,-27.19,0,*77
1485608541.82,25577,12.94,73808.5,8.89,-27.19,-27.23,0,*7F
1485608543.04,25578,12.94,73808.3,8.89,-27.03,-27.03,0,*79
1485608544.29,25579,12.94,73806.8,8.89,-27.39,-27.55,0,*72
1485608545.56,25580,12.88,73800.8,8.89,-27.19,-27.35,0,*70
1485608546.8,25581,12.94,73808.8,8.89,-26.71,-26.87,0,*76
1485608548.05,25582,12.94,73806.8,8.89,-26.61,-26.55,0,*7B
1485608549.29,25583,12.94,73808.5,8.91,-26.55,-26.55,0,*74
1485608550.49,25584,12.94,73806.5,8.91,-26.39,-26.49,0,*74
1485608551.76,25585,12.94,73804.5,8.89,-26.93,-26.93,0,*7B
1485608552.99,25586,12.94,73806.8,8.91,-26.81,-26.87,0,*77
1485608554.19,25587,12.94,73808.0,8.91,-26.65,-26.65,0,*70
1485608555.42,25588,12.94,73806.8,8.91,-26.81,-26.87,0,*79
1485608556.67,25589,12.94,73806.3,8.91,-26.71,-26.71,0,*7E
1485608557.91,25590,12.94,73804.3,8.89,-26.87,-26.93,0,*7A
1485608559.14,25591,12.94,73806.5,8.89,-27.07,-27.07,0,*7E
1485608560.38,25592,12.94,73806.5,8.91,-26.71,-26.81,0,*7B
1485608561.63,25593,12.94,73808.3,8.91,-26.71,-26.71,0,*75
1485608562.85,25594,12.94,73806.5,8.91,-27.03,-27.19,0,*79
1485608564.08,25595,12.94,73804.0,8.89,-27.07,-27.07,0,*7A
1485608565.32,25596,12.94,73808.5,8.89,-26.61,-26.55,0,*7E
1485608566.59,25597,12.94,73808.5,8.89,-26.55,-26.55,0,*78
1485608567.84,25598,12.94,73810.5,8.89,-27.55,-27.61,0,*70
1485608569.11,25599,12.94,73808.0,8.89,-27.35,-27.23,0,*71
1485608570.35,25600,12.94,73808.0,8.89,-27.19,-27.07,0,*7A
1485608571.62,25601,12.94,73806.5,8.89,-26.77,-26.71,0,*72
1485608572.89,25602,12.94,73810.0,8.89,-26.71,-26.71,0,*77
1485608574.11,25603,12.94,73810.0,8.89,-26.87,-26.87,0,*76
1485608575.33,25604,12.94,73808.0,8.89,-26.87,-26.87,0,*71
1485608576.58,25605,12.94,73806.8,8.89,-27.03,-26.93,0,*78
1485608577.79,25606,12.94,73808.0,8.87,-26.71,-26.61,0,*7C
1485608578.99,25607,12.94,73808.5,8.87,-27.03,-26.87,0,*71
1485608580.19,25608,12.94,73808.3,8.87,-26.61,-26.61,0,*73
1485608581.43,25609,12.94,73808.3,8.87,-26.71,-26.71,0,*72
1485608582.68,25610,12.94,73810.5,8.87,-26.77,-26.71,0,*7C
1485608583.87,25611,12.94,73810.0,8.87,-26.61,-26.61,0,*7B
1485608585.09,25612,12.94,73808.8,8.89,-26.61,-26.61,0,*76
1485608586.32,25613,12.94,73808.0,8.89,-26.61,-26.61,0,*77
1485608587.54,25614,12.94,73808.8,8.89,-26.61,-26.61,0,*70
1485608588.76,25615,12.94,73810.3,8.89,-26.87,-26.87,0,*71
1485608589.98,25616,12.94,73806.8,8.91,-26.55,-26.65,0,*78
1485608591.24,25617,12.94,73808.5,8.89,-26.55,-26.55,0,*73
1485608592.47,25618,12.94,73812.3,8.89,-26.61,-26.45,0,*7A
1485608593.74,25619,12.94,73806.0,8.89,-26.77,-26.77,0,*7D
1485608594.99,25620,12.94,73812.3,8.89,-26.61,-26.55,0,*70
1485608596.22,25621,12.94,73812.5,8.89,-27.07,-27.03,0,*72
1485608597.49,25622,12.94,73806.5,8.89,-27.35,-27.23,0,*72
1485608598.76,25623,12.94,73808.8,8.89,-26.93,-26.93,0,*74
1485608599.99,25624,12.94,73810.8,8.91,-26.97,-26.87,0,*7B
1485608601.24,25625,12.94,73808.3,8.89,-27.03,-26.93,0,*7A
1485608602.48,25626,12.94,73810.3,8.89,-26.87,-26.77,0,*7E
1485608603.73,25627,12.94,73804.8,8.89,-26.93,-26.87,0,*75
1485608605.01,25628,12.94,73806.8,8.89,-27.61,-27.61,0,*7F
1485608606.21,25629,12.94,73808.8,8.87,-27.55,-27.55,0,*70
1485608607.46,25630,12.94,73808.8,8.87,-26.93,-26.93,0,*78
1485608608.67,25631,12.94,73808.5,8.87,-27.19,-27.07,0,*76
1485608609.87,25632,12.94,73804.8,8.87,-26.39,-26.39,0,*7A
1485608611.07,25633,12.94,73812.0,8.87,-26.45,-26.45,0,*7B
1485608612.29,25634,12.94,73810.3,8.85,-27.55,-27.55,0,*7E
1485608613.52,25635,12.94,73810.0,8.87,-27.61,-27.71,0,*7C
1485608614.74,25636,12.94,73810.8,8.87,-26.87,-26.93,0,*7B
1485608615.97,25637,12.94,73808.8,8.85,-27.67,-27.67,0,*7D
1485608617.25,25638,12.94,73808.5,8.85,-27.99,-27.99,0,*72
1485608618.51,25639,12.94,73806.8,8.79,-28.05,-28.05,0,*70
1485608619.73,25640,12.94,73808.5,8.81,-27.71,-27.71,0,*79
1485608620.97,25641,12.94,73808.5,8.79,-27.29,-27.35,0,*72
1485608622.25,25642,12.94,73806.0,8.81,-26.81,-26.71,0,*74
1485608623.48,25643,12.94,73808.8,8.81,-26.65,-26.65,0,*7A
1485608624.76,25644,12.94,73808.0,8.81,-26.81,-26.81,0,*7D
1485608625.99,25645,12.94,73810.3,8.81,-27.13,-27.03,0,*7D
1485608627.22,25646,12.94,73806.3,8.81,-27.29,-27.29,0,*7F
1485608628.43,25647,12.94,73810.8,8.79,-27.03,-27.03,0,*79
1485608629.7,25648,12.94,73808.5,8.81,-26.55,-26.55,0,*71
1485608630.93,25649,12.94,73810.0,8.81,-26.49,-26.65,0,*7E
1485608632.18,25650,12.94,73808.3,8.81,-26.71,-26.65,0,*7D
1485608633.46,25651,12.94,73810.8,8.81,-26.33,-26.33,0,*79
1485608634.72,25652,12.94,73808.3,8.85,-26.29,-26.39,0,*7F
1485608635.94,25653,12.94,73808.5,8.85,-26.61,-26.65,0,*7B
1485608637.15,25654,12.94,73808.0,8.87,-27.07,-27.07,0,*7A
1485608638.4,25655,12.94,73808.3,8.85,-26.65,-26.77,0,*7A
1485608639.63,25656,12.94,73810.0,8.85,-27.07,-27.07,0,*7A
1485608640.91,25657,12.94,73808.0,8.81,-26.81,-26.71,0,*70
1485608642.16,25658,12.94,73810.3,8.81,-26.55,-26.65,0,*73
1485608643.39,25659,12.94,73806.5,8.87,-26.33,-26.23,0,*76
1485608644.64,25660,12.94,73810.5,8.85,-27.29,-27.39,0,*7E
1485608645.9,25661,12.94,73808.5,8.85,-27.23,-27.29,0,*74
1485608647.18,25662,12.94,73808.3,8.85,-26.97,-26.97,0,*7D
1485608648.46,25663,12.94,73810.3,8.85,-26.81,-26.77,0,*75
1485608649.75,25664,12.94,73812.5,8.85,-26.77,-26.81,0,*72
1485608651.02,25665,12.94,73804.0,8.85,-26.29,-26.29,0,*7A
1485608652.26,25666,12.94,73808.3,8.85,-26.39,-26.39,0,*79
1485608653.48,25667,12.94,73810.8,8.85,-26.23,-26.07,0,*7E
1485608654.76,25668,12.94,73810.0,8.85,-26.13,-26.13,0,*77
1485608656.0,25669,13.0,73812.0,8.89,-26.17,-26.23,0,*7D
1485608657.22,25670,12.94,73810.3,8.87,-26.61,-26.71,0,*7D
1485608658.44,25671,12.94,73808.3,8.87,-26.45,-26.55,0,*7C
1485608659.71,25672,12.94,73808.5,8.89,-26.55,-26.55,0,*70
1485608660.94,25673,12.94,73808.0,8.91,-26.97,-26.87,0,*79
1485608662.21,25674,12.94,73810.5,8.89,-26.93,-26.93,0,*76
1485608663.41,25675,12.94,73804.0,8.87,-26.61,-26.61,0,*79
1485608664.65,25676,12.94,73810.3,8.89,-26.23,-26.17,0,*73
1485608665.91,25677,12.94,73808.8,8.87,-26.33,-26.33,0,*7B
1485608667.13,25678,12.94,73808.0,8.89,-27.03,-26.87,0,*77
1485608668.38,25679,12.94,73806.8,8.89,-26.77,-26.87,0,*74
1485608669.6,25680,12.94,73808.0,8.89,-26.61,-26.61,0,*7D
1485608670.83,25681,12.94,73808.8,8.89,-27.03,-27.03,0,*7C
1485608672.03,25682,12.94,73808.0,8.91,-26.65,-26.65,0,*76
1485608673.3,25683,12.94,73806.8,8.89,-26.71,-26.77,0,*78
1485608674.57,25684,12.94,73808.3,8.89,-26.71,-26.77,0,*7F
1485608675.85,25685,12.94,73808.5,8.89,-26.77,-26.93,0,*72
1485608677.1,25686,12.94,73810.5,8.89,-27.61,-27.77,0,*7C
1485608678.34,25687,12.94,73804.5,8.91,-27.35,-27.45,0,*74
1485608679.56,25688,12.94,73810.3,8.89,-26.87,-26.87,0,*75
1485608680.79,25689,12.94,73810.3,8.91,-26.97,-26.87,0,*7C
1485608682.08,25690,12.94,73808.3,8.89,-26.33,-26.33,0,*7C
1485608683.33,25691,12.94,73810.8,8.91,-26.17,-26.13,0,*70
1485608684.58,25692,12.94,73808.0,8.91,-26.13,-26.17,0,*73
1485608685.77,25693,12.94,73810.3,8.91,-26.49,-26.49,0,*76
1485608687.03,25694,12.94,73808.0,8.91,-26.33,-26.29,0,*7A
1485608688.28,25695,12.94,73808.8,8.89,-26.23,-26.17,0,*7E
1485608689.5,25696,12.94,73808.0,8.91,-26.97,-26.87,0,*72
1485608690.76,25697,12.94,73808.0,8.91,-26.81,-26.81,0,*72
1485608692.02,25698,12.94,73808.5,8.91,-26.33,-26.33,0,*7D
1485608693.3,25699,12.94,73808.8,8.93,-26.33,-26.33,0,*7E
1485608694.57,25700,12.94,73810.3,8.93,-26.29,-26.17,0,*72
1485608695.83,25701,12.94,73804.5,8.93,-26.65,-26.55,0,*7D
1485608697.06,25702,12.94,73810.3,8.93,-26.49,-26.39,0,*7A
1485608698.28,25703,12.94,73808.3,8.93,-26.65,-26.65,0,*7C
1485608699.51,25704,12.94,73810.5,8.93,-27.03,-27.03,0,*7B
1485608700.73,25705,12.94,73808.3,8.95,-27.39,-27.51,0,*72
1485608701.98,25706,12.94,73808.0,8.95,-27.23,-27.23,0,*7F
1485608703.17,25707,12.94,73808.3,8.95,-27.13,-27.13,0,*7E
1485608704.41,25708,12.94,73808.8,8.95,-27.35,-27.23,0,*76
1485608705.63,25709,12.94,73804.8,8.93,-27.03,-27.13,0,*77
1485608706.89,25710,12.94,73810.0,8.93,-27.29,-27.35,0,*73
1485608708.14,25711,12.94,73808.5,8.93,-27.29,-27.35,0,*72
1485608709.36,25712,12.94,73806.8,8.91,-27.89,-27.83,0,*74
1485608710.56,25713,12.94,73806.5,8.91,-27.51,-27.51,0,*7F
1485608711.79,25714,12.94,73810.0,8.89,-27.07,-27.03,0,*75
1485608713.03,25715,12.94,73806.5,8.91,-27.19,-27.19,0,*79
1485608714.23,25716,12.94,73810.8,8.91,-27.55,-27.67,0,*7B
1485608715.51,25717,12.94,73808.3,8.89,-28.05,-28.09,0,*7E
1485608716.73,25718,12.94,73806.8,8.91,-27.67,-27.83,0,*7E
1485608718.01,25719,12.94,73808.0,8.89,-28.09,-28.25,0,*72
1485608719.26,25720,12.94,73810.0,8.89,-27.93,-28.05,0,*76
1485608720.46,25721,12.94,73808.5,8.87,-27.71,-27.89,0,*7E
1485608721.7,25722,12.94,73810.0,8.85,-27.83,-27.77,0,*73
1485608722.95,25723,12.94,73808.3,8.87,-27.39,-27.61,0,*76
1485608724.23,25724,13.0,73810.3,8.89,-28.09,-28.21,0,*78
1485608725.48,25725,12.94,73808.5,8.85,-27.77,-27.83,0,*74
1485608726.73,25726,12.94,73806.3,8.85,-28.31,-28.43,0,*79
1485608727.96,25727,13.0,73812.3,8.85,-27.55,-27.67,0,*7C
1485608729.23,25728,12.94,73808.3,8.85,-27.99,-28.09,0,*74
1485608730.52,25729,12.94,73808.8,8.85,-27.61,-27.61,0,*73
1485608731.78,25730,12.94,73810.0,8.85,-27.61,-27.67,0,*7D
1485608733.02,25731,12.94,73804.8,8.85,-27.83,-27.93,0,*7B
1485608734.25,25732,12.94,73810.5,8.85,-27.67,-27.77,0,*78
1485608735.48,25733,13.0,73810.5,8.85,-27.29,-27.29,0,*78
1485608736.71,25734,12.94,73808.5,8.85,-27.07,-27.07,0,*7F
1485608738.0,25735,12.94,73810.3,8.85,-26.97,-26.81,0,*79
1485608739.27,25736,12.94,73810.3,8.81,-27.35,-27.35,0,*79
1485608740.51,25737,12.94,73804.0,8.81,-27.29,-27.29,0,*78
1485608741.76,25738,12.94,73806.8,8.85,-27.39,-27.29,0,*72
1485608743.01,25739,12.94,73804.0,8.85,-27.29,-27.45,0,*78
1485608744.25,25740,12.94,73804.8,8.85,-26.65,-26.61,0,*78
1485608745.5,25741,12.94,73810.0,8.85,-26.97,-27.07,0,*75
1485608746.73,25742,13.0,73810.0,8.87,-27.07,-27.19,0,*73
1485608747.95,25743,12.94,73808.3,8.85,-27.55,-27.55,0,*7F
1485608749.18,25744,12.94,73806.0,8.85,-27.13,-27.07,0,*7D
1485608750.43,25745,12.94,73806.5,8.85,-27.29,-27.45,0,*73
1485608751.68,25746,12.94,73810.0,8.85,-28.09,-28.15,0,*77
1485608752.88,25747,12.94,73810.0,8.87,-27.03,-27.03,0,*79
1485608754.14,25748,12.94,73810.0,8.85,-27.61,-27.67,0,*72
1485608755.4,25749,12.94,73808.0,8.85,-28.15,-28.25,0,*76
1485608756.64,25750,12.94,73808.0,8.87,-26.93,-26.93,0,*7F
1485608757.9,25751,12.94,73808.5,8.81,-26.65,-26.71,0,*7D
1485608759.14,25752,12.94,73808.0,8.87,-26.55,-26.55,0,*7D
1485608760.38,25753,13.0,73810.0,8.87,-26.71,-26.55,0,*7A
1485608761.63,25754,12.94,73810.0,8.87,-26.71,-26.77,0,*7D
1485608762.82,25755,13.0,73810.3,8.87,-27.03,-27.07,0,*7E
1485608764.07,25756,12.94,73808.3,8.89,-26.87,-26.93,0,*72
1485608765.32,25757,12.94,73806.3,8.89,-27.07,-27.19,0,*79
1485608766.59,25758,12.94,73808.8,8.89,-26.77,-26.93,0,*73
1485608767.84,25759,13.0,73808.3,8.89,-26.55,-26.61,0,*7F
1485608769.09,25760,13.0,73810.0,8.89,-26.77,-26.87,0,*7D
1485608770.31,25761,12.94,73810.0,8.89,-26.87,-27.03,0,*7E
1485608771.53,25762,12.94,73804.3,8.89,-26.61,-26.61,0,*70
1485608772.77,25763,13.0,73810.5,8.91,-26.33,-26.39,0,*72
1485608774.01,25764,12.94,73806.5,8.91,-26.71,-26.71,0,*7F
1485608775.26,25765,12.94,73810.3,8.93,-26.65,-26.71,0,*79
1485608776.51,25766,12.94,73808.8,8.95,-26.93,-26.81,0,*7A
1485608777.73,25767,12.94,73804.3,8.93,-26.87,-26.87,0,*7E
1485608778.96,25768,13.0,73810.8,8.95,-26.61,-26.77,0,*70
1485608780.21,25769,12.94,73806.5,8.95,-26.81,-26.77,0,*7F
1485608781.43,25770,12.94,73806.8,8.95,-26.77,-26.65,0,*7D
1485608782.69,25771,13.0,73810.8,8.95,-26.81,-26.81,0,*7F
1485608783.94,25772,12.94,73808.0,8.95,-26.93,-26.97,0,*78
1485608785.16,25773,12.94,73808.3,8.93,-26.87,-26.87,0,*7B
1485608786.41,25774,13.0,73808.8,8.95,-26.77,-26.81,0,*73
1485608787.61,25775,13.0,73810.3,8.95,-26.65,-26.61,0,*7F
1485608788.86,25776,13.0,73808.8,8.95,-26.81,-26.93,0,*7B
1485608790.08,25777,12.94,73808.8,8.97,-27.03,-27.07,0,*7F
1485608791.34,25778,13.0,73810.0,8.99,-27.61,-27.61,0,*7A
1485608792.56,25779,13.0,73808.8,8.97,-27.03,-27.03,0,*75
1485608793.79,25780,12.94,73806.0,8.97,-26.61,-26.61,0,*73
1485608795.06,25781,13.0,73810.5,8.97,-26.77,-26.55,0,*72
1485608796.34,25782,12.94,73810.0,8.97,-26.29,-26.29,0,*71
1485608797.61,25783,13.0,73810.8,8.97,-27.45,-27.45,0,*70
1485608798.83,25784,13.0,73808.0,8.97,-27.93,-27.93,0,*77
1485608800.07,25785,12.94,73806.8,8.99,-27.39,-27.45,0,*73
1485608801.31,25786,13.0,73810.5,8.97,-26.55,-26.61,0,*72
1485608802.55,25787,12.94,73806.8,8.99,-26.55,-26.55,0,*7A
1485608803.77,25788,13.0,73808.5,8.99,-26.61,-26.71,0,*74
1485608805.01,25789,13.0,73810.3,8.99,-26.55,-26.55,0,*74
1485608806.25,25790,13.0,73810.0,8.99,-26.55,-26.55,0,*7C
1485608807.52,25791,12.94,73806.3,8.97,-26.55,-26.55,0,*73
1485608808.71,25792,12.94,73806.3,8.99,-26.45,-26.39,0,*75
1485608809.99,25793,12.94,73808.8,9.01,-26.71,-26.71,0,*7F
1485608811.26,25794,13.0,73808.0,9.01,-26.81,-26.71,0,*77
1485608812.48,25795,13.0,73810.8,9.01,-26.23,-26.23,0,*79
1485608813.72,25796,13.0,73808.5,9.03,-26.55,-26.55,0,*78
1485608814.95,25797,13.0,73808.5,9.03,-26.33,-26.39,0,*73
1485608816.2,25798,12.94,73808.3,9.03,-26.81,-26.71,0,*79
1485608817.39,25799,13.0,73810.8,9.03,-26.23,-26.49,0,*7B
1485608818.61,25800,12.94,73808.0,9.05,-26.45,-26.45,0,*7E
1485608819.85,25801,13.0,73812.5,9.05,-25.97,-26.07,0,*75
1485608821.1,25802,13.0,73808.3,9.05,-26.29,-26.45,0,*76
1485608822.33,25803,13.0,73812.3,9.09,-26.29,-26.39,0,*70
1485608823.6,25804,13.0,73810.3,9.05,-26.81,-26.93,0,*79
1485608824.81,25805,12.94,73808.3,9.09,-27.07,-27.07,0,*77
1485608826.03,25806,13.0,73810.5,9.05,-27.77,-27.77,0,*78
1485608827.3,25807,13.0,73808.8,9.05,-26.93,-26.97,0,*7D
1485608828.53,25808,13.0,73808.0,9.09,-26.61,-26.77,0,*7D
1485608829.76,25809,13.0,73808.3,9.05,-27.67,-27.67,0,*77
1485608831.0,25810,12.94,73804.5,9.09,-27.19,-27.19,0,*73
1485608832.22,25811,12.94,73806.8,9.05,-26.61,-26.61,0,*7E
1485608833.44,25812,13.0,73810.3,9.05,-26.45,-26.49,0,*71
1485608834.66,25813,12.94,73806.0,9.09,-26.29,-26.45,0,*7A
1485608835.87,25814,13.0,73810.0,9.09,-26.39,-26.45,0,*7C
1485608837.11,25815,13.0,73808.5,9.09,-26.55,-26.55,0,*76
1485608838.37,25816,13.0,73810.5,9.11,-27.55,-27.61,0,*7B
1485608839.62,25817,12.94,73810.3,9.11,-26.87,-26.93,0,*78
1485608840.88,25818,13.0,73808.8,9.11,-26.77,-26.87,0,*7D
1485608842.16,25819,13.0,73806.5,9.11,-26.77,-26.71,0,*75
1485608843.41,25820,13.0,73808.8,9.11,-26.87,-26.93,0,*7C
1485608844.66,25821,13.0,73808.3,9.11,-27.03,-27.19,0,*73
1485608845.89,25822,13.0,73810.3,9.11,-27.03,-27.03,0,*7B
1485608847.18,25823,13.0,73810.5,9.11,-26.77,-26.77,0,*7A
1485608848.43,25824,13.0,73810.0,9.13,-26.55,-26.55,0,*7F
1485608849.62,25825,13.0,73812.0,9.13,-26.87,-26.87,0,*7E
1485608850.87,25826,13.0,73808.0,9.13,-26.55,-26.55,0,*7D
1485608852.09,25827,13.0,73810.3,9.15,-26.61,-26.61,0,*7A
1485608853.32,25828,13.0,73810.5,9.11,-26.87,-26.87,0,*71
1485608854.57,25829,13.0,73810.3,9.13,-26.71,-26.71,0,*72
1485608855.79,25830,13.0,73808.5,9.13,-26.55,-26.65,0,*79
1485608857.05,25831,13.0,73810.8,9.13,-26.97,-26.97,0,*7B
1485608858.3,25832,13.0,73808.5,9.13,-27.35,-27.35,0,*78
1485608859.54,25833,13.0,73810.3,9.13,-26.97,-26.87,0,*78
1485608860.76,25834,13.0,73808.3,9.13,-26.39,-26.55,0,*74
1485608861.98,25835,13.0,73810.5,9.15,-26.61,-26.65,0,*7D
1485608863.21,25836,12.94,73804.3,9.17,-27.07,-27.19,0,*77
1485608864.47,25837,13.0,73806.5,9.15,-26.97,-27.07,0,*73
1485608865.72,25838,13.0,73810.8,9.15,-27.77,-27.83,0,*7F
1485608866.99,25839,13.0,73810.8,9.15,-27.35,-27.35,0,*75
1485608868.22,25840,13.0,73810.5,9.15,-26.65,-26.61,0,*7F
1485608869.44,25841,13.0,73808.3,9.15,-26.45,-26.45,0,*7A
1485608870.72,25842,13.0,73808.3,9.15,-26.77,-26.93,0,*73
1485608871.92,25843,12.94,73804.5,9.17,-26.65,-26.65,0,*7A
1485608873.15,25844,13.0,73806.8,9.15,-26.49,-26.45,0,*73
1485608874.43,25845,13.0,73808.5,9.15,-26.33,-26.33,0,*7E
1485608875.63,25846,13.0,73808.5,9.17,-26.61,-26.65,0,*7B
1485608876.87,25847,13.0,73810.3,9.17,-26.65,-26.81,0,*74
1485608878.09,25848,13.0,73808.0,9.17,-27.19,-27.29,0,*72
1485608879.35,25849,13.0,73808.0,9.17,-26.97,-26.97,0,*70
1485608880.61,25850,13.0,73810.3,9.17,-26.77,-26.81,0,*71
1485608881.84,25851,13.0,73808.5,9.19,-26.45,-26.45,0,*77
1485608883.07,25852,13.0,73810.5,9.19,-27.03,-27.03,0,*74
1485608884.35,25853,13.0,73810.3,9.19,-26.77,-26.77,0,*75
1485608885.58,25854,13.0,73810.3,9.19,-27.29,-27.29,0,*72
1485608886.83,25855,13.0,73810.0,9.21,-27.23,-27.23,0,*78
1485608888.09,25856,13.0,73808.0,9.21,-26.71,-26.81,0,*74
1485608889.37,25857,13.0,73810.8,9.19,-26.77,-26.71,0,*77
1485608890.64,25858,13.0,73808.8,9.19,-26.71,-26.71,0,*7E
1485608891.84,25859,13.0,73808.3,9.21,-26.87,-26.87,0,*74
1485608893.03,25860,13.0,73810.0,9.21,-26.87,-26.87,0,*7E
1485608894.28,25861,13.0,73810.3,9.21,-26.71,-26.71,0,*7F
1485608895.48,25862,13.0,73810.0,9.21,-26.87,-27.07,0,*75
1485608896.68,25863,13.0,73810.8,9.21,-27.03,-27.07,0,*79
1485608897.91,25864,13.0,73808.0,9.21,-26.65,-26.71,0,*7F
1485608899.17,25865,13.0,73810.8,9.21,-26.81,-26.97,0,*7C
1485608900.38,25866,13.0,73808.8,9.21,-27.07,-27.03,0,*7C
1485608901.63,25867,13.0,73806.8,9.21,-26.71,-26.71,0,*79
1485608902.86,25868,13.0,73812.3,9.21,-27.07,-27.23,0,*70
1485608904.11,25869,13.0,73810.3,9.21,-26.71,-26.81,0,*78
1485608905.36,25870,13.0,73808.5,9.21,-26.71,-26.81,0,*70